[[{"header":{"parameterUnit":"m.s-1","parameterCategory":1,"la1":30.2991,"la2":30.254,"lo1":-89.0895,"lo2":-89.0444,"dy":0.0017,"dx":0.0017,"nx":28,"ny":28,"refTime":"2025-06-16T21:00:00:Z","depth":0,"parameterNumber":2,"parameterNumberName":"U-component_of_WINDS"},"data":[0,0,0,0,0,0,0,0,0,0,0,0,0,0,0,0,0,0,0,0,0,0,0,0,0,0,0,0,0,0,0,0,0,0,0,0,0,0,0,0,0,0,0,0,0,0,0,0,0,0,0,0,0,0,0,0,0,0,-0.4345,-0.4345,0,-0.4303,-0.4302,-0.4302,-0.4288,-0.4288,-0.4288,-0.4288,-0.4244,-0.4243,-0.4241,0,0,0,0,0,0,0,0,0,0,0,0,0,-0.4415,-0.4414,-0.4345,-0.4345,-0.4344,-0.4303,-0.4302,-0.4302,-0.4288,-0.4288,-0.4288,-0.4288,-0.4244,-0.4243,-0.4241,0,0,0,0,0,0,0,0,0,0,0,0,0,-0.438,-0.4414,-0.4345,-0.4332,-0.4331,-0.4303,-0.4302,-0.4301,-0.4288,-0.4288,-0.4288,-0.4289,-0.4245,-0.4243,-0.4241,-0.4223,0,0,-0.4235,-0.4234,0,0,0,0,0,0,0,0,-0.4382,-0.4377,-0.4335,-0.4333,-0.4331,-0.4301,-0.4311,-0.4275,-0.4288,-0.4304,-0.4288,-0.4289,-0.4263,-0.4259,-0.4251,-0.4221,-0.4219,-0.4235,-0.4233,-0.4232,-0.4232,0,0,0,0,0,0,0,-0.4384,-0.4379,-0.4328,-0.4334,-0.4332,-0.4329,-0.4324,-0.4304,-0.4282,-0.4303,-0.4301,-0.4297,-0.4262,-0.4253,-0.4249,-0.4218,-0.4235,-0.4233,-0.4232,-0.4231,-0.4173,-0.4173,0,0,0,0,0,0,-0.4389,-0.4381,-0.433,-0.4327,-0.4358,-0.4327,-0.4322,-0.431,-0.4282,-0.4278,-0.4296,-0.4296,-0.4256,-0.4252,-0.4248,-0.4225,-0.4232,-0.4231,-0.4229,-0.4173,-0.4173,-0.4173,0,0,0,0,0,0,-0.4391,-0.4385,-0.4331,-0.4354,-0.4347,-0.4326,-0.4313,-0.4309,-0.43,-0.4278,-0.4274,-0.4291,-0.4256,-0.4251,-0.423,-0.4224,-0.423,-0.4228,-0.4174,-0.4173,-0.4173,-0.418,0,0,0,0,0,0,-0.4393,-0.4385,-0.4378,-0.4354,-0.4346,-0.4314,-0.4312,-0.4308,-0.4297,-0.4296,-0.4272,-0.4268,-0.4256,-0.4233,-0.4228,-0.4221,-0.4226,-0.4174,-0.4174,-0.4173,-0.418,-0.418,-0.418,0,0,0,0,0,-0.4395,-0.4381,-0.4377,-0.4371,-0.4336,-0.4313,-0.4309,-0.4295,-0.4296,-0.4289,-0.4275,-0.4269,-0.4225,-0.4231,-0.4225,-0.4218,-0.4174,-0.4174,-0.4173,-0.4181,-0.418,-0.418,0,0,0,0,0,0,-0.4404,-0.4377,-0.4373,-0.4351,-0.4335,-0.4311,-0.4301,-0.4295,-0.4278,-0.4278,-0.4262,-0.4256,-0.4237,-0.4225,-0.4231,-0.4199,-0.42,-0.4198,-0.4207,-0.4207,-0.4207,-0.421,-0.4225,0,0,0,0,0,-0.4403,-0.4387,-0.4365,-0.4347,-0.434,-0.4322,-0.4311,-0.4303,-0.4285,-0.4278,-0.4262,-0.4245,-0.4228,-0.4217,-0.42,-0.4179,-0.4174,-0.4171,-0.4171,-0.4171,-0.4169,-0.4159,-0.4158,-0.417,-0.417,-0.417,0,0,-0.4402,-0.4385,-0.4376,-0.4349,-0.4335,-0.4319,-0.4316,-0.4299,-0.4287,-0.4275,-0.4255,-0.4243,-0.4223,-0.4202,-0.4193,-0.4192,-0.4165,-0.417,-0.417,-0.4169,-0.4158,-0.4157,-0.4156,-0.417,-0.417,-0.417,0,0,-0.4391,-0.4377,-0.4361,-0.4348,-0.4327,-0.4316,-0.4313,-0.429,-0.4282,-0.4261,-0.4253,-0.4239,-0.4209,-0.4196,-0.4185,-0.4171,-0.4165,-0.4166,-0.4164,-0.4154,-0.4153,-0.4152,-0.4148,-0.4147,-0.4165,-0.4165,-0.4165,0,-0.4391,-0.4366,-0.4353,-0.4337,-0.4326,-0.4316,-0.43,-0.4288,-0.4263,-0.4256,-0.4256,-0.422,-0.4205,-0.4182,-0.4179,-0.4171,-0.4167,-0.4168,-0.4155,-0.4153,-0.4152,-0.4148,-0.4146,-0.4165,-0.4165,-0.4165,-0.4165,0,-0.4368,-0.4352,-0.4342,-0.4319,-0.4306,-0.429,-0.4276,-0.4265,-0.4258,-0.4247,-0.4227,-0.421,-0.419,-0.4184,-0.4176,-0.416,-0.416,-0.4158,-0.4158,-0.4152,-0.4147,-0.4146,-0.4166,-0.4165,-0.4165,-0.4165,0,0,-0.436,-0.4332,-0.4328,-0.4318,-0.4296,-0.4283,-0.4267,-0.4248,-0.424,-0.4223,-0.421,-0.4187,-0.4185,-0.4173,-0.4164,-0.4155,-0.4147,-0.4154,-0.4153,-0.4153,-0.4128,-0.413,-0.4129,-0.4143,-0.4142,-0.4142,-0.413,0,-0.4346,-0.4317,-0.4306,-0.4283,-0.4268,-0.426,-0.4246,-0.4232,-0.4221,-0.4207,-0.4196,-0.418,-0.4178,-0.4171,-0.4162,-0.4149,-0.4141,-0.415,-0.4131,-0.413,-0.4135,-0.4126,-0.4128,-0.4117,-0.4128,-0.4128,-0.4128,0,-0.4326,-0.431,-0.4286,-0.4267,-0.426,-0.4248,-0.4231,-0.4217,-0.4201,-0.4195,-0.4182,-0.4175,-0.4159,-0.4161,-0.4139,-0.4145,-0.4137,-0.413,-0.4129,-0.4126,-0.4128,-0.4123,-0.4113,-0.4112,-0.4125,-0.4125,-0.4125,0,-0.4322,-0.4295,-0.4278,-0.4269,-0.4247,-0.4239,-0.4229,-0.4213,-0.4203,-0.4188,-0.4182,-0.4165,-0.4155,-0.4143,-0.4131,-0.4134,-0.4111,-0.4111,-0.4105,-0.4105,-0.41,-0.41,-0.4088,-0.4095,-0.4095,-0.4095,-0.4095,0,-0.4308,-0.4293,-0.4276,-0.4265,-0.4249,-0.4237,-0.4222,-0.4211,-0.4198,-0.4185,-0.4177,-0.4165,-0.4151,-0.4137,-0.4128,-0.4112,-0.4108,-0.4102,-0.41,-0.4103,-0.4104,-0.4096,-0.4097,-0.4095,-0.4095,-0.4095,-0.4095,0,-0.4301,-0.4289,-0.4269,-0.425,-0.4245,-0.4234,-0.4218,-0.4208,-0.4198,-0.4182,-0.4178,-0.4162,-0.4147,-0.4134,-0.4113,-0.4107,-0.409,-0.4087,-0.4096,-0.4094,-0.4089,-0.409,-0.4072,-0.4069,-0.4078,-0.4078,-0.4078,0,-0.4292,-0.4281,-0.4261,-0.4253,-0.4243,-0.4229,-0.4219,-0.4207,-0.4197,-0.4179,-0.4171,-0.4155,-0.4141,-0.4116,-0.4103,-0.4088,-0.4085,-0.408,-0.4082,-0.4086,-0.4085,-0.4086,-0.4085,-0.4079,-0.4079,-0.4079,-0.4079,0,-0.4278,-0.4273,-0.4259,-0.4243,-0.4232,-0.4219,-0.4206,-0.4199,-0.4185,-0.4175,-0.4159,-0.4148,-0.4128,-0.4112,-0.4095,-0.4086,-0.408,-0.4079,-0.4076,-0.4079,-0.4084,-0.4082,-0.4095,-0.4079,-0.4079,-0.4079,-0.4079,-0.4079,-0.427,-0.426,-0.4245,-0.423,-0.422,-0.4208,-0.4198,-0.4187,-0.4174,-0.4156,-0.4151,-0.4134,-0.412,-0.4098,-0.4088,-0.4076,-0.4075,-0.4072,-0.4071,-0.407,-0.4071,-0.4087,-0.4073,-0.4073,-0.4073,-0.4073,-0.4073,0,-0.4256,-0.4246,-0.4233,-0.4215,-0.4204,-0.4201,-0.4186,-0.4177,-0.4163,-0.415,-0.4138,-0.412,-0.4105,-0.4092,-0.4077,-0.4069,-0.4067,-0.4066,-0.4066,-0.4064,-0.4072,-0.4075,-0.4068,-0.4068,-0.4068,-0.4068,-0.4068,-0.4068,-0.4247,-0.4231,-0.4224,-0.4203,-0.4194,-0.4178,-0.417,-0.416,-0.415,-0.4131,-0.4119,-0.411,-0.4098,-0.4082,-0.4069,-0.4065,-0.406,-0.406,-0.4056,-0.4063,-0.4063,-0.4064,-0.4067,-0.4059,-0.4059,-0.4049,-0.4049,-0.4049]},{"header":{"parameterUnit":"m.s-1","parameterCategory":1,"la1":30.2991,"la2":30.254,"lo1":-89.0895,"lo2":-89.0444,"dy":0.0017,"dx":0.0017,"nx":28,"ny":28,"refTime":"2025-06-16T21:00:00:Z","depth":0,"parameterNumber":3,"parameterNumberName":"V-component_of_WINDS"},"data":[0,0,0,0,0,0,0,0,0,0,0,0,0,0,0,0,0,0,0,0,0,0,0,0,0,0,0,0,0,0,0,0,0,0,0,0,0,0,0,0,0,0,0,0,0,0,0,0,0,0,0,0,0,0,0,0,0,0,4.3139,4.314,0,4.3226,4.3227,4.3228,4.3201,4.32,4.3198,4.3196,4.3281,4.3285,4.3289,0,0,0,0,0,0,0,0,0,0,0,0,0,4.2947,4.2951,4.3139,4.314,4.3141,4.3226,4.3227,4.3228,4.3202,4.32,4.3197,4.3195,4.328,4.3285,4.329,0,0,0,0,0,0,0,0,0,0,0,0,0,4.3032,4.2952,4.3139,4.3138,4.3139,4.3225,4.3227,4.3228,4.3202,4.32,4.3197,4.3194,4.3279,4.3284,4.329,4.3381,0,0,4.3308,4.3311,0,0,0,0,0,0,0,0,4.3027,4.3039,4.3137,4.3138,4.3139,4.32,4.319,4.3279,4.3203,4.3178,4.3196,4.3193,4.3256,4.3264,4.3286,4.3385,4.3389,4.3309,4.3312,4.3315,4.3317,0,0,0,0,0,0,0,4.3021,4.3035,4.3173,4.3139,4.314,4.3133,4.3142,4.3207,4.3231,4.318,4.3178,4.3189,4.3256,4.328,4.3288,4.339,4.3309,4.3314,4.3318,4.332,4.3568,4.3571,0,0,0,0,0,0,4.3015,4.303,4.317,4.3176,4.3075,4.3138,4.3148,4.3183,4.323,4.3235,4.3191,4.3188,4.3272,4.3281,4.3291,4.3401,4.3315,4.332,4.3324,4.3565,4.3569,4.3572,0,0,0,0,0,0,4.3011,4.3028,4.3167,4.3103,4.312,4.3144,4.3184,4.3186,4.321,4.3239,4.3243,4.3212,4.327,4.3282,4.3359,4.3403,4.3323,4.3328,4.3562,4.3566,4.3571,4.3621,0,0,0,0,0,0,4.3005,4.3026,4.3062,4.3104,4.3123,4.3235,4.3187,4.319,4.3221,4.3217,4.3259,4.3263,4.3269,4.335,4.3365,4.341,4.3333,4.3558,4.3564,4.3569,4.3616,4.3627,4.3637,0,0,0,0,0,4.2999,4.3072,4.3064,4.3081,4.3168,4.3237,4.3249,4.3254,4.3225,4.326,4.3279,4.3262,4.3396,4.3359,4.3375,4.3422,4.3555,4.3562,4.3569,4.3611,4.3625,4.3636,0,0,0,0,0,0,4.3033,4.3077,4.3069,4.3158,4.3194,4.3233,4.3278,4.3268,4.3313,4.3307,4.3311,4.332,4.3399,4.3418,4.3376,4.3513,4.3471,4.3481,4.3498,4.3511,4.3521,4.3515,4.3338,0,0,0,0,0,4.3051,4.3105,4.314,4.3215,4.3234,4.3253,4.3283,4.3284,4.3322,4.3337,4.3361,4.3397,4.3447,4.348,4.3528,4.3618,4.3627,4.3659,4.3669,4.3678,4.3687,4.3737,4.3751,4.3595,4.3595,4.3594,0,0,4.3088,4.3119,4.3152,4.3222,4.3251,4.3306,4.3266,4.3325,4.3365,4.3345,4.342,4.3439,4.3479,4.3564,4.3602,4.3582,4.3732,4.3686,4.3693,4.3697,4.3745,4.376,4.3773,4.3599,4.3598,4.3598,0,0,4.3185,4.3213,4.3279,4.3309,4.3354,4.3366,4.3382,4.3423,4.3435,4.351,4.3496,4.3544,4.363,4.366,4.3686,4.3795,4.3781,4.381,4.3865,4.3913,4.3926,4.3937,4.3976,4.399,4.3819,4.3819,4.3819,0,4.3225,4.3308,4.3314,4.3376,4.3407,4.3392,4.3459,4.3487,4.3544,4.3565,4.3542,4.3651,4.3677,4.3769,4.3796,4.3817,4.3835,4.3806,4.3924,4.3935,4.3945,4.3983,4.3997,4.3822,4.3822,4.3822,4.3821,0,4.3356,4.3414,4.3462,4.352,4.3556,4.3619,4.3634,4.367,4.3668,4.3683,4.376,4.3791,4.3845,4.3866,4.3864,4.3958,4.3944,4.3923,4.3881,4.3963,4.3999,4.4013,4.3827,4.3826,4.3825,4.3824,0,0,4.3476,4.3537,4.3555,4.3581,4.3629,4.3674,4.3736,4.3791,4.3822,4.3861,4.3914,4.3988,4.3969,4.3998,4.4,4.4042,4.4127,4.4015,4.4016,4.4036,4.4233,4.4249,4.4266,4.4119,4.4121,4.4124,4.423,0,4.3577,4.369,4.3697,4.3798,4.3851,4.3839,4.3893,4.3928,4.3944,4.3991,4.4007,4.406,4.403,4.4048,4.409,4.4108,4.4167,4.4101,4.4167,4.4169,4.4158,4.4284,4.4302,4.44,4.4243,4.4246,4.4247,0,4.371,4.3756,4.3863,4.3905,4.3927,4.3977,4.4027,4.4073,4.4112,4.412,4.4154,4.415,4.4213,4.417,4.4257,4.4212,4.4239,4.4253,4.4257,4.4263,4.4214,4.4295,4.4432,4.4447,4.4269,4.4267,4.4266,0,4.3788,4.3876,4.3952,4.3975,4.4025,4.406,4.4082,4.4119,4.4151,4.4195,4.4216,4.4267,4.4294,4.4333,4.4342,4.4309,4.443,4.4386,4.4438,4.4438,4.4464,4.4462,4.4608,4.4481,4.4481,4.4481,4.4481,0,4.39,4.3966,4.3988,4.4034,4.4108,4.4115,4.4187,4.4207,4.424,4.4289,4.4281,4.4327,4.4336,4.4384,4.4392,4.4463,4.4476,4.4484,4.4485,4.4485,4.4484,4.4503,4.4497,4.4485,4.4484,4.4483,4.4483,0,4.4,4.4017,4.4098,4.414,4.4152,4.4204,4.4239,4.4283,4.4298,4.4361,4.4376,4.4398,4.4455,4.4468,4.4534,4.4539,4.4624,4.4618,4.4611,4.4611,4.4662,4.4657,4.4825,4.4848,4.4706,4.4708,4.4709,0,4.4071,4.4121,4.4169,4.4202,4.4227,4.428,4.4314,4.4323,4.4358,4.4407,4.4446,4.4501,4.4546,4.4637,4.4658,4.4709,4.4705,4.476,4.4712,4.4711,4.4706,4.4703,4.4709,4.4769,4.4771,4.4772,4.4773,0,4.4195,4.4201,4.4251,4.4304,4.4345,4.4386,4.4426,4.4453,4.4468,4.4508,4.4566,4.4601,4.467,4.4725,4.4777,4.4798,4.4788,4.4788,4.4803,4.4803,4.4798,4.4802,4.4637,4.4784,4.4783,4.4782,4.4782,4.4781,4.4282,4.4327,4.4368,4.4424,4.4455,4.4493,4.4537,4.4558,4.4607,4.4665,4.4666,4.473,4.4768,4.4836,4.4861,4.491,4.4893,4.4914,4.492,4.4925,4.493,4.479,4.492,4.4919,4.4919,4.4919,4.4919,0,4.4406,4.4432,4.4484,4.4541,4.4584,4.4573,4.4616,4.4653,4.471,4.4747,4.4792,4.4859,4.4913,4.4939,4.4992,4.5027,4.5024,4.504,4.5038,4.5043,4.4942,4.4924,4.5042,4.5042,4.5042,4.5042,4.5042,4.5042,4.4476,4.4552,4.4563,4.4654,4.4679,4.4743,4.4768,4.4803,4.4833,4.4909,4.4954,4.4971,4.5004,4.506,4.5108,4.5115,4.5135,4.5154,4.5158,4.5063,4.505,4.5038,4.5022,4.5158,4.5158,4.5255,4.5256,4.5257]}]]